Flag for Canada Weather past 2 weeks in Rothesay, New Brunswick, Canada

Now
25 °F

Passing clouds.


Feels Like: 19 °F
Forecast: 22 / 38 °F
Wind: 5 mph from South

Location: Saint John

Current Time: Mar 29, 2015 at 10:06:08 PM

Latest Report: Mar 29, 2015 at 9:00 PM


Visibility: 15 mi

Pressure: 30.06 "Hg

Humidity: 74%

Dew point: 18 °F

Location of RothesayLocation

Historic Weather in Rothesay — Graph

°F

Rothesay temperature yesterday

Maximum temperature yesterday: 36 °F (at 12:00 AM)
Minimum temperature yesterday: 27 °F (at 10:00 PM)
Average temperature yesterday: 31 °F

Past Weeks' High & Low Weather Summary

 TemperatureHumidityPressure
High41 °F (Mar 25, 2:00 PM)100% (Mar 22, 12:00 AM)30.35 "Hg (Mar 22, 12:00 AM)
Low-2 °F (Mar 17, 5:00 AM)21% (Mar 29, 2:00 PM)29.21 "Hg (Mar 18, 4:00 AM)
Average23 °F71%29.83 "Hg
* Reported Mar 14 9:00 PM — Mar 29 9:00 PM, Rothesay, Weather by CustomWeather, © 2015

Note: Actual official high and low records may vary slightly from our data, if they occured in-between our weather recording intervals... More about our weather records

Advertising

Rothesay weather history for previous 24 hours

 ConditionsComfort  
Time TempWeatherWind HumidityBarometerVisibility
9:00 PM
Sun, Mar 29
25 °FPassing clouds.5 mph74%30.06 "Hg15 mi
8:00 PM28 °FPassing clouds.10 mph64%30.04 "Hg15 mi
7:00 PM32 °FSunny.14 mph47%30.03 "Hg15 mi
6:00 PM34 °FSunny.12 mph44%30.02 "Hg15 mi
5:00 PM34 °FSunny.14 mph44%30.02 "Hg15 mi
4:00 PM36 °FPassing clouds.8 mph30%30.02 "Hg15 mi
3:00 PM36 °FPassing clouds.5 mph23%30.02 "Hg15 mi
2:00 PM36 °FPassing clouds.12 mph21%30.03 "Hg15 mi
1:00 PM32 °FPassing clouds.6 mph25%30.04 "Hg15 mi
12:00 PM30 °FPassing clouds.10 mph34%30.06 "Hg15 mi
11:00 AM28 °FScattered clouds.7 mph37%30.06 "Hg15 mi
10:00 AM27 °FBroken clouds.12 mph36%30.04 "Hg15 mi
9:00 AM23 °FPartly sunny.14 mph39%30.02 "Hg15 mi
8:00 AM19 °FPassing clouds.7 mph45%30.00 "Hg15 mi
7:00 AM19 °FPassing clouds.9 mph49%29.96 "Hg15 mi
6:00 AM21 °FPassing clouds.10 mph54%29.93 "Hg15 mi
5:00 AM21 °FPassing clouds.5 mph74%29.91 "Hg15 mi
4:00 AM25 °FMostly cloudy.6 mph63%29.89 "Hg15 mi
3:00 AM27 °FMostly cloudy.8 mph59%29.88 "Hg15 mi
2:00 AM27 °FMostly cloudy.8 mph59%29.87 "Hg15 mi
1:00 AM27 °FOvercast.7 mph59%29.86 "Hg15 mi
12:00 AM27 °FOvercast.6 mph59%29.85 "Hg15 mi
11:00 PM
Sat, Mar 28
27 °FOvercast.10 mph50%29.81 "Hg15 mi
10:00 PM27 °FOvercast.14 mph54%29.78 "Hg15 mi
Weather by CustomWeather, © 2015

See weather overviewHow to use our weather pages